Time,TemperatureF,DewpointF,PressureIn,WindDirection,WindDirectionDegrees,WindSpeedMPH,WindSpeedGustMPH,Humidity,HourlyPrecipIn,Conditions,Clouds,dailyrainin,SolarRadiationWatts/m^2,SoftwareType,DateUTC
2013-12-03 00:00:00,47.3,41.4,29.76,North,32767,-999.0,0.0,80,0.00,,,0.00,0,Wunderground v.1.15,2013-12-03 05:00:00,
2013-12-03 00:05:00,47.4,41.9,29.76,North,32767,-999.0,0.0,81,0.00,,,0.00,0,Wunderground v.1.15,2013-12-03 05:05:00,
2013-12-03 00:10:00,47.6,42.4,29.76,North,32767,-999.0,0.0,82,0.00,,,0.00,0,Wunderground v.1.15,2013-12-03 05:10:00,
2013-12-03 00:15:00,47.7,42.2,29.76,North,32767,-999.0,0.0,81,0.00,,,0.00,0,Wunderground v.1.15,2013-12-03 05:15:00,
2013-12-03 00:20:00,47.7,42.2,29.76,North,32767,-999.0,0.0,81,0.00,,,0.00,0,Wunderground v.1.15,2013-12-03 05:20:00,
2013-12-03 00:25:00,47.9,42.0,29.76,North,32767,-999.0,0.0,80,0.00,,,0.00,0,Wunderground v.1.15,2013-12-03 05:25:00,
2013-12-03 00:35:00,47.9,42.0,29.76,North,32767,-999.0,0.0,80,0.00,,,0.00,0,Wunderground v.1.15,2013-12-03 05:35:00,
2013-12-03 00:45:00,47.7,42.2,29.76,North,32767,-999.0,0.0,81,0.00,,,0.00,0,Wunderground v.1.15,2013-12-03 05:45:00,
2013-12-03 00:50:00,47.7,42.5,29.76,North,32767,-999.0,0.0,82,0.00,,,0.00,0,Wunderground v.1.15,2013-12-03 05:50:00,
2013-12-03 00:55:00,47.6,42.4,29.76,North,32767,-999.0,0.0,82,0.00,,,0.00,0,Wunderground v.1.15,2013-12-03 05:55:00,
2013-12-03 01:05:00,47.4,42.2,29.76,North,32767,-999.0,0.0,82,0.00,,,0.00,0,Wunderground v.1.15,2013-12-03 06:05:00,
2013-12-03 01:20:00,47.4,42.2,29.76,North,32767,-999.0,0.0,82,0.00,,,0.00,0,Wunderground v.1.15,2013-12-03 06:20:00,
2013-12-03 01:30:00,47.3,42.4,29.76,North,32767,-999.0,0.0,83,0.00,,,0.00,0,Wunderground v.1.15,2013-12-03 06:30:00,
2013-12-03 01:35:00,47.3,42.4,29.76,North,32767,-999.0,0.0,83,0.00,,,0.00,0,Wunderground v.1.15,2013-12-03 06:35:00,
2013-12-03 01:45:00,47.3,42.1,29.76,North,32767,-999.0,0.0,82,0.00,,,0.00,0,Wunderground v.1.15,2013-12-03 06:45:00,
2013-12-03 01:55:00,47.1,42.5,29.77,North,32767,-999.0,0.0,84,0.00,,,0.00,0,Wunderground v.1.15,2013-12-03 06:55:00,
2013-12-03 02:10:00,47.0,42.4,29.77,North,32767,-999.0,0.0,84,0.00,,,0.00,0,Wunderground v.1.15,2013-12-03 07:10:00,
2013-12-03 02:20:00,46.7,42.4,29.78,North,32767,-999.0,0.0,85,0.00,,,0.00,0,Wunderground v.1.15,2013-12-03 07:20:00,
2013-12-03 02:25:00,46.4,42.1,29.78,North,32767,-999.0,0.0,85,0.00,,,0.00,0,Wunderground v.1.15,2013-12-03 07:25:00,
2013-12-03 02:35:00,46.0,42.0,29.77,North,32767,-999.0,0.0,86,0.00,,,0.00,0,Wunderground v.1.15,2013-12-03 07:35:00,
2013-12-03 02:40:00,45.8,41.9,29.77,North,32767,-999.0,0.0,86,0.00,,,0.00,0,Wunderground v.1.15,2013-12-03 07:40:00,
2013-12-03 02:45:00,45.7,41.8,29.77,North,32767,-999.0,0.0,86,0.00,,,0.00,0,Wunderground v.1.15,2013-12-03 07:45:00,
2013-12-03 02:50:00,45.4,41.8,29.77,North,32767,-999.0,0.0,87,0.00,,,0.00,0,Wunderground v.1.15,2013-12-03 07:50:00,
2013-12-03 03:00:00,44.9,41.3,29.77,North,32767,-999.0,0.0,87,0.00,,,0.00,0,Wunderground v.1.15,2013-12-03 08:00:00,
2013-12-03 03:10:00,44.6,41.3,29.77,North,32767,-999.0,0.0,88,0.00,,,0.00,0,Wunderground v.1.15,2013-12-03 08:10:00,
2013-12-03 03:15:00,44.5,41.2,29.77,North,32767,-999.0,0.0,88,0.00,,,0.00,0,Wunderground v.1.15,2013-12-03 08:15:00,
2013-12-03 03:25:00,44.1,41.1,29.76,North,32767,-999.0,0.0,89,0.00,,,0.00,0,Wunderground v.1.15,2013-12-03 08:25:00,
2013-12-03 03:35:00,43.8,41.1,29.76,North,32767,-999.0,0.0,90,0.00,,,0.00,0,Wunderground v.1.15,2013-12-03 08:35:00,
2013-12-03 03:40:00,43.6,40.9,29.76,North,32767,-999.0,0.0,90,0.00,,,0.00,0,Wunderground v.1.15,2013-12-03 08:40:00,
2013-12-03 03:50:00,43.2,40.8,29.76,North,32767,-999.0,0.0,91,0.00,,,0.00,0,Wunderground v.1.15,2013-12-03 08:50:00,
2013-12-03 03:55:00,43.2,41.0,29.76,North,32767,-999.0,0.0,92,0.00,,,0.00,0,Wunderground v.1.15,2013-12-03 08:55:00,
2013-12-03 04:00:00,43.1,40.9,29.76,North,32767,-999.0,0.0,92,0.00,,,0.00,0,Wunderground v.1.15,2013-12-03 09:00:00,
2013-12-03 04:10:00,42.9,41.0,29.76,North,32767,-999.0,0.0,93,0.00,,,0.00,0,Wunderground v.1.15,2013-12-03 09:10:00,
2013-12-03 04:20:00,42.9,41.0,29.77,North,32767,-999.0,0.0,93,0.00,,,0.00,0,Wunderground v.1.15,2013-12-03 09:20:00,
2013-12-03 04:25:00,42.9,41.0,29.77,North,32767,-999.0,0.0,93,0.00,,,0.00,0,Wunderground v.1.15,2013-12-03 09:25:00,
2013-12-03 04:30:00,43.2,41.3,29.77,North,32767,-999.0,0.0,93,0.00,,,0.00,0,Wunderground v.1.15,2013-12-03 09:30:00,
2013-12-03 04:35:00,43.2,41.3,29.77,North,32767,-999.0,0.0,93,0.00,,,0.00,0,Wunderground v.1.15,2013-12-03 09:35:00,
2013-12-03 04:45:00,43.1,40.7,29.77,North,32767,-999.0,0.0,91,0.00,,,0.00,0,Wunderground v.1.15,2013-12-03 09:45:00,
2013-12-03 04:50:00,43.2,40.8,29.77,North,32767,-999.0,0.0,91,0.00,,,0.00,0,Wunderground v.1.15,2013-12-03 09:50:00,
2013-12-03 04:55:00,43.2,40.8,29.77,North,32767,-999.0,0.0,91,0.00,,,0.00,0,Wunderground v.1.15,2013-12-03 09:55:00,
2013-12-03 05:05:00,43.2,41.0,29.77,North,32767,-999.0,0.0,92,0.00,,,0.00,0,Wunderground v.1.15,2013-12-03 10:05:00,
2013-12-03 05:15:00,43.3,41.1,29.77,North,32767,-999.0,0.0,92,0.00,,,0.00,0,Wunderground v.1.15,2013-12-03 10:15:00,
2013-12-03 05:20:00,43.3,41.1,29.78,North,32767,-999.0,0.0,92,0.00,,,0.00,0,Wunderground v.1.15,2013-12-03 10:20:00,
2013-12-03 05:25:00,43.3,41.1,29.78,North,32767,-999.0,0.0,92,0.00,,,0.00,0,Wunderground v.1.15,2013-12-03 10:25:00,
2013-12-03 05:35:00,43.2,41.0,29.78,North,32767,-999.0,0.0,92,0.00,,,0.00,0,Wunderground v.1.15,2013-12-03 10:35:00,
2013-12-03 05:40:00,43.1,40.9,29.78,North,32767,-999.0,0.0,92,0.00,,,0.00,0,Wunderground v.1.15,2013-12-03 10:40:00,
2013-12-03 05:50:00,43.1,41.2,29.78,North,32767,-999.0,0.0,93,0.00,,,0.00,0,Wunderground v.1.15,2013-12-03 10:50:00,
2013-12-03 05:55:00,43.1,41.2,29.78,North,32767,-999.0,0.0,93,0.00,,,0.00,0,Wunderground v.1.15,2013-12-03 10:55:00,
2013-12-03 06:05:00,42.9,41.0,29.79,North,32767,-999.0,0.0,93,0.00,,,0.00,0,Wunderground v.1.15,2013-12-03 11:05:00,
2013-12-03 06:10:00,42.8,40.6,29.79,North,32767,-999.0,0.0,92,0.00,,,0.00,0,Wunderground v.1.15,2013-12-03 11:10:00,
2013-12-03 06:20:00,42.8,40.9,29.81,North,32767,-999.0,0.0,93,0.00,,,0.00,0,Wunderground v.1.15,2013-12-03 11:20:00,
2013-12-03 06:30:00,42.6,40.7,29.81,North,32767,-999.0,0.0,93,0.00,,,0.00,0,Wunderground v.1.15,2013-12-03 11:30:00,
2013-12-03 06:40:00,42.6,40.4,29.81,North,32767,-999.0,0.0,92,0.00,,,0.00,0,Wunderground v.1.15,2013-12-03 11:40:00,
2013-12-03 06:50:00,42.5,40.3,29.81,North,32767,-999.0,0.0,92,0.00,,,0.00,0,Wunderground v.1.15,2013-12-03 11:50:00,
2013-12-03 07:00:00,42.5,40.3,29.81,North,32767,-999.0,0.0,92,0.00,,,0.00,0,Wunderground v.1.15,2013-12-03 12:00:00,
2013-12-03 07:05:00,42.3,40.1,29.81,North,32767,-999.0,0.0,92,0.00,,,0.00,0,Wunderground v.1.15,2013-12-03 12:05:00,
2013-12-03 07:10:00,42.3,40.1,29.81,North,32767,-999.0,0.0,92,0.00,,,0.00,0,Wunderground v.1.15,2013-12-03 12:10:00,
2013-12-03 07:15:00,42.2,40.0,29.81,North,32767,-999.0,0.0,92,0.00,,,0.00,0,Wunderground v.1.15,2013-12-03 12:15:00,
2013-12-03 07:25:00,42.1,39.9,29.81,North,32767,-999.0,0.0,92,0.00,,,0.00,5,Wunderground v.1.15,2013-12-03 12:25:00,
2013-12-03 07:30:00,41.9,39.7,29.81,North,32767,-999.0,0.0,92,0.00,,,0.00,5,Wunderground v.1.15,2013-12-03 12:30:00,
2013-12-03 07:40:00,41.9,40.0,29.82,North,32767,-999.0,0.0,93,0.00,,,0.00,12,Wunderground v.1.15,2013-12-03 12:40:00,
2013-12-03 07:45:00,42.1,39.9,29.82,North,32767,-999.0,0.0,92,0.00,,,0.00,14,Wunderground v.1.15,2013-12-03 12:45:00,
2013-12-03 07:55:00,42.2,40.3,29.82,North,32767,-999.0,0.0,93,0.00,,,0.00,19,Wunderground v.1.15,2013-12-03 12:55:00,
2013-12-03 08:05:00,42.3,40.1,29.83,North,32767,-999.0,0.0,92,0.00,,,0.00,23,Wunderground v.1.15,2013-12-03 13:05:00,
2013-12-03 08:15:00,42.6,40.7,29.83,North,32767,-999.0,0.0,93,0.00,,,0.00,39,Wunderground v.1.15,2013-12-03 13:15:00,
2013-12-03 08:25:00,42.9,40.7,29.84,North,32767,-999.0,0.0,92,0.00,,,0.00,28,Wunderground v.1.15,2013-12-03 13:25:00,
2013-12-03 08:30:00,43.1,40.9,29.84,North,32767,-999.0,0.0,92,0.00,,,0.00,30,Wunderground v.1.15,2013-12-03 13:30:00,
2013-12-03 08:35:00,43.3,40.8,29.84,North,32767,-999.0,0.0,91,0.00,,,0.00,33,Wunderground v.1.15,2013-12-03 13:35:00,
2013-12-03 08:40:00,43.8,41.3,29.84,North,32767,-999.0,0.0,91,0.00,,,0.00,37,Wunderground v.1.15,2013-12-03 13:40:00,
2013-12-03 08:45:00,44.1,41.6,29.84,North,32767,-999.0,0.0,91,0.00,,,0.00,40,Wunderground v.1.15,2013-12-03 13:45:00,
2013-12-03 08:50:00,44.5,41.7,29.84,North,32767,-999.0,0.0,90,0.00,,,0.00,51,Wunderground v.1.15,2013-12-03 13:50:00,
2013-12-03 09:00:00,45.5,42.4,29.84,NNE,23,0.0,0.0,89,0.00,,,0.00,125,Wunderground v.1.15,2013-12-03 14:00:00,
2013-12-03 09:05:00,46.1,42.1,29.84,NNE,23,0.0,0.0,86,0.00,,,0.00,107,Wunderground v.1.15,2013-12-03 14:05:00,
2013-12-03 09:10:00,46.5,41.9,29.84,NNE,24,0.0,0.0,84,0.00,,,0.00,70,Wunderground v.1.15,2013-12-03 14:10:00,
2013-12-03 09:15:00,46.8,42.2,29.84,NNE,23,0.0,0.0,84,0.00,,,0.00,93,Wunderground v.1.15,2013-12-03 14:15:00,
2013-12-03 09:26:00,47.3,42.1,29.84,NNE,23,0.0,0.0,82,0.00,,,0.00,114,Wunderground v.1.15,2013-12-03 14:26:00,
2013-12-03 09:35:00,47.4,42.2,29.84,NNE,23,0.0,0.0,82,0.00,,,0.00,135,Wunderground v.1.15,2013-12-03 14:35:00,
2013-12-03 09:45:00,47.9,42.0,29.84,WNW,296,0.0,0.0,80,0.00,,,0.00,143,Wunderground v.1.15,2013-12-03 14:45:00,
2013-12-03 09:55:00,48.5,41.3,29.85,WNW,295,0.0,0.0,76,0.00,,,0.00,127,Wunderground v.1.15,2013-12-03 14:55:00,
2013-12-03 10:00:00,48.5,41.3,29.85,SW,224,0.0,0.0,76,0.00,,,0.00,90,Wunderground v.1.15,2013-12-03 15:00:00,
2013-12-03 10:10:00,49.1,42.2,29.86,SSW,206,0.0,0.0,77,0.00,,,0.00,162,Wunderground v.1.15,2013-12-03 15:10:00,
2013-12-03 10:16:00,49.5,41.9,29.86,SSE,165,0.0,0.0,75,0.00,,,0.00,88,Wunderground v.1.15,2013-12-03 15:16:00,
2013-12-03 10:25:00,49.8,42.2,29.86,SSW,206,0.0,0.0,75,0.00,,,0.00,70,Wunderground v.1.15,2013-12-03 15:25:00,
2013-12-03 10:30:00,49.9,42.3,29.86,SSW,206,0.0,0.0,75,0.00,,,0.00,100,Wunderground v.1.15,2013-12-03 15:30:00,
2013-12-03 10:40:00,50.1,42.5,29.86,SSW,206,0.0,0.0,75,0.00,,,0.00,79,Wunderground v.1.15,2013-12-03 15:40:00,
2013-12-03 10:45:00,50.1,42.5,29.86,North,32767,-999.0,0.0,75,0.00,,,0.00,91,Wunderground v.1.15,2013-12-03 15:45:00,
2013-12-03 10:55:00,50.4,43.5,29.86,SSW,206,0.0,0.0,77,0.00,,,0.00,134,Wunderground v.1.15,2013-12-03 15:55:00,
2013-12-03 11:05:00,51.0,43.4,29.86,SSW,200,0.0,0.0,75,0.00,,,0.00,194,Wunderground v.1.15,2013-12-03 16:05:00,
2013-12-03 11:10:00,51.6,43.6,29.86,SSW,199,0.0,0.0,74,0.00,,,0.00,176,Wunderground v.1.15,2013-12-03 16:10:00,
2013-12-03 11:20:00,52.5,43.7,29.85,SSE,158,0.0,0.0,72,0.00,,,0.00,179,Wunderground v.1.15,2013-12-03 16:20:00,
2013-12-03 11:25:00,52.9,44.5,29.85,ESE,113,0.0,0.0,73,0.00,,,0.00,146,Wunderground v.1.15,2013-12-03 16:25:00,
2013-12-03 11:35:00,53.5,44.3,29.85,ESE,113,0.0,0.0,71,0.00,,,0.00,211,Wunderground v.1.15,2013-12-03 16:35:00,
2013-12-03 11:40:00,53.9,44.3,29.85,ESE,114,0.0,0.0,70,0.00,,,0.00,137,Wunderground v.1.15,2013-12-03 16:40:00,
2013-12-03 11:50:00,54.2,44.6,29.84,SE,134,0.0,0.0,70,0.00,,,0.00,95,Wunderground v.1.15,2013-12-03 16:50:00,
2013-12-03 11:55:00,54.5,44.9,29.84,North,32767,-999.0,0.0,70,0.00,,,0.00,93,Wunderground v.1.15,2013-12-03 16:55:00,
2013-12-03 12:05:00,54.8,44.8,29.83,North,32767,-999.0,0.0,69,0.00,,,0.00,55,Wunderground v.1.15,2013-12-03 17:05:00,
2013-12-03 12:15:00,55.0,45.0,29.83,North,32767,-999.0,0.0,69,0.00,,,0.00,58,Wunderground v.1.15,2013-12-03 17:15:00,
2013-12-03 12:20:00,55.0,45.0,29.83,North,32767,-999.0,0.0,69,0.00,,,0.00,70,Wunderground v.1.15,2013-12-03 17:20:00,
2013-12-03 12:30:00,55.1,45.1,29.83,North,32767,-999.0,0.0,69,0.00,,,0.00,69,Wunderground v.1.15,2013-12-03 17:30:00,
2013-12-03 12:35:00,55.0,45.4,29.83,North,32767,-999.0,0.0,70,0.00,,,0.00,74,Wunderground v.1.15,2013-12-03 17:35:00,
2013-12-03 12:45:00,55.0,45.4,29.83,North,32767,-999.0,0.0,70,0.00,,,0.00,48,Wunderground v.1.15,2013-12-03 17:45:00,
2013-12-03 12:55:00,54.8,45.6,29.83,North,32767,-999.0,0.0,71,0.00,,,0.00,67,Wunderground v.1.15,2013-12-03 17:55:00,
2013-12-03 13:00:00,54.7,45.5,29.83,North,32767,-999.0,0.0,71,0.00,,,0.00,51,Wunderground v.1.15,2013-12-03 18:00:00,
2013-12-03 13:05:00,54.7,45.5,29.83,North,32767,-999.0,0.0,71,0.00,,,0.00,60,Wunderground v.1.15,2013-12-03 18:05:00,
2013-12-03 13:10:00,54.7,45.5,29.83,North,32767,-999.0,0.0,71,0.00,,,0.00,49,Wunderground v.1.15,2013-12-03 18:10:00,
2013-12-03 13:20:00,54.7,46.2,29.83,North,32767,-999.0,0.0,73,0.00,,,0.00,44,Wunderground v.1.15,2013-12-03 18:20:00,
2013-12-03 13:30:00,54.5,46.4,29.83,North,32767,-999.0,0.0,74,0.00,,,0.00,40,Wunderground v.1.15,2013-12-03 18:30:00,
2013-12-03 13:35:00,54.5,46.4,29.82,North,32767,-999.0,0.0,74,0.00,,,0.00,46,Wunderground v.1.15,2013-12-03 18:35:00,
2013-12-03 13:45:00,54.8,46.7,29.82,North,32767,-999.0,0.0,74,0.00,,,0.00,72,Wunderground v.1.15,2013-12-03 18:45:00,
2013-12-03 13:50:00,54.7,46.6,29.82,North,32767,-999.0,0.0,74,0.00,,,0.00,63,Wunderground v.1.15,2013-12-03 18:50:00,
2013-12-03 13:55:00,54.7,46.6,29.82,North,32767,-999.0,0.0,74,0.00,,,0.00,65,Wunderground v.1.15,2013-12-03 18:55:00,
2013-12-03 14:05:00,54.7,46.6,29.82,North,32767,-999.0,0.0,74,0.00,,,0.00,60,Wunderground v.1.15,2013-12-03 19:05:00,
2013-12-03 14:10:00,54.8,46.7,29.82,North,32767,-999.0,0.0,74,0.00,,,0.00,60,Wunderground v.1.15,2013-12-03 19:10:00,
2013-12-03 14:20:00,54.8,46.7,29.82,North,32767,-999.0,0.0,74,0.00,,,0.00,69,Wunderground v.1.15,2013-12-03 19:20:00,
2013-12-03 14:25:00,55.1,46.6,29.82,North,32767,-999.0,0.0,73,0.00,,,0.00,58,Wunderground v.1.15,2013-12-03 19:25:00,
2013-12-03 14:35:00,55.3,46.4,29.82,North,32767,-999.0,0.0,72,0.00,,,0.00,28,Wunderground v.1.15,2013-12-03 19:35:00,
2013-12-03 14:40:00,55.3,46.4,29.82,North,32767,-999.0,0.0,72,0.00,,,0.00,26,Wunderground v.1.15,2013-12-03 19:40:00,
2013-12-03 14:45:00,55.1,46.2,29.82,North,32767,-999.0,0.0,72,0.00,,,0.00,42,Wunderground v.1.15,2013-12-03 19:45:00,
2013-12-03 14:55:00,55.1,46.2,29.82,North,32767,-999.0,0.0,72,0.00,,,0.00,63,Wunderground v.1.15,2013-12-03 19:55:00,
2013-12-03 15:00:00,55.1,46.2,29.82,North,32767,-999.0,0.0,72,0.00,,,0.00,76,Wunderground v.1.15,2013-12-03 20:00:00,
2013-12-03 15:05:00,55.1,46.6,29.82,North,32767,-999.0,0.0,73,0.00,,,0.00,55,Wunderground v.1.15,2013-12-03 20:05:00,
2013-12-03 15:15:00,55.3,46.4,29.82,North,32767,-999.0,0.0,72,0.00,,,0.00,35,Wunderground v.1.15,2013-12-03 20:15:00,
2013-12-03 15:25:00,55.3,46.4,29.83,North,32767,-999.0,0.0,72,0.00,,,0.00,60,Wunderground v.1.15,2013-12-03 20:25:00,
2013-12-03 15:35:00,55.3,46.4,29.83,North,32767,-999.0,0.0,72,0.00,,,0.00,65,Wunderground v.1.15,2013-12-03 20:35:00,
2013-12-03 15:45:00,55.3,46.4,29.83,North,32767,-999.0,0.0,72,0.00,,,0.00,32,Wunderground v.1.15,2013-12-03 20:45:00,
2013-12-03 15:50:00,55.3,46.4,29.84,North,32767,-999.0,0.0,72,0.00,,,0.00,28,Wunderground v.1.15,2013-12-03 20:50:00,
2013-12-03 16:00:00,55.3,46.4,29.84,North,32767,-999.0,0.0,72,0.00,,,0.00,28,Wunderground v.1.15,2013-12-03 21:00:00,
2013-12-03 16:05:00,55.3,46.8,29.84,North,32767,-999.0,0.0,73,0.00,,,0.00,18,Wunderground v.1.15,2013-12-03 21:05:00,
2013-12-03 16:10:00,55.1,46.6,29.84,North,32767,-999.0,0.0,73,0.00,,,0.00,16,Wunderground v.1.15,2013-12-03 21:10:00,
2013-12-03 16:20:00,55.0,46.9,29.84,North,32767,-999.0,0.0,74,0.00,,,0.00,16,Wunderground v.1.15,2013-12-03 21:20:00,
2013-12-03 16:25:00,54.8,46.7,29.84,North,32767,-999.0,0.0,74,0.00,,,0.00,16,Wunderground v.1.15,2013-12-03 21:25:00,
2013-12-03 16:30:00,54.8,47.0,29.84,North,32767,-999.0,0.0,75,0.00,,,0.00,14,Wunderground v.1.15,2013-12-03 21:30:00,
2013-12-03 16:40:00,54.5,46.7,29.85,North,32767,-999.0,0.0,75,0.00,,,0.00,9,Wunderground v.1.15,2013-12-03 21:40:00,
2013-12-03 16:50:00,54.2,46.8,29.85,North,32767,-999.0,0.0,76,0.00,,,0.00,9,Wunderground v.1.15,2013-12-03 21:50:00,
2013-12-03 16:55:00,53.9,46.5,29.85,North,32767,-999.0,0.0,76,0.00,,,0.00,7,Wunderground v.1.15,2013-12-03 21:55:00,
2013-12-03 17:00:00,53.5,46.1,29.85,North,32767,-999.0,0.0,76,0.00,,,0.00,0,Wunderground v.1.15,2013-12-03 22:00:00,
2013-12-03 17:10:00,53.1,46.1,29.85,North,32767,-999.0,0.0,77,0.00,,,0.00,0,Wunderground v.1.15,2013-12-03 22:10:00,
2013-12-03 17:20:00,52.5,45.8,29.85,North,32767,-999.0,0.0,78,0.00,,,0.00,0,Wunderground v.1.15,2013-12-03 22:20:00,
2013-12-03 17:25:00,52.2,45.9,29.85,North,32767,-999.0,0.0,79,0.00,,,0.00,0,Wunderground v.1.15,2013-12-03 22:25:00,
2013-12-03 17:35:00,51.7,45.7,29.86,North,32767,-999.0,0.0,80,0.00,,,0.00,0,Wunderground v.1.15,2013-12-03 22:35:00,
2013-12-03 17:45:00,51.3,46.0,29.86,North,32767,-999.0,0.0,82,0.00,,,0.00,0,Wunderground v.1.15,2013-12-03 22:45:00,
2013-12-03 17:55:00,51.1,45.8,29.86,North,32767,-999.0,0.0,82,0.00,,,0.00,0,Wunderground v.1.15,2013-12-03 22:55:00,
2013-12-03 18:05:00,51.1,46.1,29.86,North,32767,-999.0,0.0,83,0.00,,,0.00,0,Wunderground v.1.15,2013-12-03 23:05:00,
2013-12-03 18:15:00,51.3,46.3,29.86,North,32767,-999.0,0.0,83,0.00,,,0.00,0,Wunderground v.1.15,2013-12-03 23:15:00,
2013-12-03 18:25:00,51.4,46.1,29.86,North,32767,-999.0,0.0,82,0.00,,,0.00,0,Wunderground v.1.15,2013-12-03 23:25:00,
2013-12-03 18:35:00,51.4,46.1,29.86,North,32767,-999.0,0.0,82,0.00,,,0.00,0,Wunderground v.1.15,2013-12-03 23:35:00,